#timestamp,LO_Frequency,Hit 
1505458815.3,286046998.1,N
1505458835.1,286047000.5,N
1505458855.9,286046998.1,N
1505458875.7,286046996.1,N
1505458895.5,286046993.6,N
1505458915.4,286046990.6,N
1505458935.2,286046990.7,N
1505458955.0,286046992.7,N
1505458955.9,286046992.7,N
1505458975.8,286046994.5,N
1505458995.6,286046995.4,N
1505459015.4,286046999.3,N
1505459035.3,286046995.9,N
1505459055.1,286046995.5,N
1505459056.0,286046995.5,N
1505459075.8,286047001.1,N
1505459095.7,286046996.6,N
1505459115.5,286046996.9,N
1505459135.3,286046997.1,N
1505459155.1,286046997.7,N
1505459175.9,286047001.0,N
1505459195.7,286046998.1,N
1505459215.5,286046997.8,N
1505459235.4,286046995.9,N
1505459255.2,286046994.4,N
1505459275.0,286046995.6,N
1505459275.9,286046995.6,N
1505459295.8,286046997.1,N
1505459315.6,286046999.0,N
1505459335.4,286046999.2,N
1505459355.3,286047000.1,N
1505459375.1,286047000.5,N
1505459376.0,286047000.5,N
1505459395.8,286047000.8,N
1505459415.7,286047002.0,N
1505459435.5,286047000.4,N
1505459455.3,286047001.5,N
1505459475.2,286047004.6,N
1505459495.9,286047004.1,N
1505459515.7,286047001.9,N
1505459535.5,286047004.1,N
1505459555.4,286046998.3,N
1505459575.2,286047000.3,N
1505459595.0,286046997.4,N
1505459595.9,286046997.4,N
1505459615.8,286046996.9,N
1505459635.6,286046998.7,N
1505459655.4,286046997.0,N
1505459675.3,286047000.8,N
1505459695.1,286047000.9,N
1505459715.8,286046999.6,N
1505459735.7,286046999.2,N
1505459755.5,286046999.5,N
1505459775.3,286046997.2,N
1505459795.2,286046994.9,N
1505459815.9,286046996.7,N
1505459835.7,286046998.8,N
1505459855.5,286046999.3,N
1505459875.4,286047001.1,N
1505459895.2,286046999.1,N
1505459915.0,286046994.5,N
1505459915.9,286046994.5,N
1505459935.8,286046994.7,N
1505459955.6,286046997.1,N
1505459975.4,286046995.2,N
1505459995.3,286046995.9,N
1505460015.1,286046993.8,N
1505460016.0,286046993.8,N
1505460035.8,286046992.0,N
1505460055.7,286046990.5,P
1505460075.5,286046996.5,N
1505460095.3,286046997.2,N
1505460115.2,286046996.2,N
1505460135.9,286046995.5,N
1505460155.7,286046994.7,N
1505460175.6,286046994.1,N
1505460195.4,286046993.7,N
1505460215.2,286046993.3,P
1505460235.1,286047000.4,N
1505460236.0,286047000.4,N
1505460255.8,286047000.8,N
1505460275.6,286047001.0,N
1505460295.5,286047001.2,N
1505460315.3,286046999.5,N
1505460335.1,286046996.3,N
1505460355.9,286046995.5,N
1505460375.7,286046998.4,N
1505460395.5,286046997.4,N
1505460415.4,286046996.1,N
1505460435.2,286046992.4,N
1505460455.0,286046992.6,N
1505460455.9,286046992.6,N
1505460475.8,286046989.0,P
1505460495.6,286046990.4,N
1505460515.4,286046992.9,N
1505460535.3,286046993.6,N
1505460555.1,286046994.3,N
1505460556.0,286046994.3,N
1505460575.8,286046995.0,N
1505460595.7,286046997.9,N
1505460615.5,286046995.8,N
1505460635.3,286046995.3,N
1505460655.1,286046996.0,N
1505460675.9,286046995.0,N
1505460695.7,286046996.9,N
1505460715.5,286046999.5,N
1505460735.4,286047000.9,N
1505460755.2,286046998.6,N
1505460775.0,286046997.8,N
1505460775.9,286046997.8,N
1505460795.8,286046998.0,N
1505460815.6,286046991.7,N
1505460835.4,286046992.2,N
1505460855.3,286046994.3,N
1505460875.1,286046994.7,N
1505460876.0,286046994.7,N
1505460895.8,286046994.6,N
1505460915.7,286046992.5,N
1505460935.5,286046991.1,P
1505460955.3,286046990.2,P
1505460975.2,286046990.5,P
1505460995.9,286046994.3,N
1505461015.7,286046995.0,N
1505461035.6,286046995.5,N
1505461055.4,286047000.2,N
1505461075.2,286047001.8,N
1505461095.0,286047000.9,N
1505461095.9,286047000.9,N
1505461115.8,286046999.1,N
1505461135.6,286046995.3,N
1505461155.4,286046998.0,N
1505461175.3,286046990.8,N
1505461195.1,286046989.0,N
1505461215.8,286046989.5,N
1505461235.7,286046987.8,N
1505461255.5,286046987.8,N
1505461275.3,286046990.0,N
1505461295.2,286046989.7,N
1505461315.9,286046992.0,N
1505461335.7,286046992.3,N
1505461355.6,286046992.7,N
1505461375.4,286046994.7,N
1505461395.2,286046992.6,N
1505461415.0,286046990.1,N
1505461415.9,286046990.1,N
1505461435.8,286046994.8,N
1505461455.6,286046991.7,N
1505461475.4,286046993.1,N
1505461495.3,286046989.0,N
1505461515.1,286046988.9,N
1505461535.8,286046991.1,N
1505461555.7,286046991.3,N
1505461575.5,286046989.1,N
1505461595.3,286046986.9,P
1505461615.2,286046995.2,N
1505461635.0,286046999.4,N
1505461635.9,286046999.4,N
1505461655.7,286046997.3,N
1505461675.6,286046995.6,N
1505461695.4,286046992.0,N
1505461715.2,286046990.5,N
1505461735.1,286046987.8,P
1505461736.0,286046987.8,P
1505461755.8,286046994.4,N
1505461775.6,286046995.1,N
1505461795.5,286046999.8,N
1505461815.3,286046998.3,N
1505461835.1,286046997.9,N
1505461855.9,286046998.6,N
1505461875.7,286046995.5,N
1505461895.5,286046999.6,N
1505461915.4,286046999.6,N
1505461935.2,286046999.3,N
1505461955.0,286046997.2,N
1505461955.9,286046997.2,N
1505461975.8,286047000.6,N
1505461995.6,286047000.3,N
1505462015.4,286046999.1,N
1505462035.3,286046999.2,N
1505462055.1,286046999.7,N
1505462056.0,286046999.7,N
1505462075.8,286047000.6,N
1505462095.7,286046998.9,N
1505462115.5,286047000.4,N
1505462135.3,286047001.5,N
1505462155.1,286047003.1,N
1505462175.9,286047009.0,N
1505462195.7,286047005.3,N
1505462215.5,286047001.9,N
1505462235.4,286046999.3,N
1505462255.2,286046996.7,N
1505462275.0,286046997.7,N
1505462275.9,286046997.7,N
1505462295.8,286046995.7,N
1505462315.6,286046995.2,N
1505462335.4,286046994.5,N
1505462355.3,286046997.8,N
1505462375.1,286046995.4,N
1505462376.0,286046995.4,N
1505462395.8,286046997.1,N
